Regional Weather Roundup
Issued by NWS

Home | Current Version | Previous Version | Graphics & Text | Print | Product List | Glossary On
Versions: 1 2 3 4 5 6 7 8 9 10 11 12 13 14 15 16 17 18 19 20 21 22 23 24 25 26 27 28 29 30 31 32 33 34 35 36 37 38 39 40 41 42 43 44 45 46 47 48 49 50
000
ASUS43 KLMK 241302
RWRKY
KENTUCKY REGIONAL WEATHER ROUNDUP
NATIONAL WEATHER SERVICE LOUISVILLE KY
900 AM EDT SAT SEP 24 2016

NOTE "FAIR" INDICATES FEW OR NO CLOUDS BELOW 12,000 FEET
WITH NO SIGNIFICANT WEATHER AND/OR OBSTRUCTIONS TO VISIBILITY.

KYZ001>023-026-027-061>063-070>075-241400-
WESTERN AND SOUTH CENTRAL KENTUCKY

CITY           SKY/WX    TMP DP  RH WIND       PRES   REMARKS
PADUCAH        SUNNY     69  67  93 CALM      30.11R FOG
HENDERSON      SUNNY     68  63  83 CALM      30.12R
OWENSBORO      SUNNY    N/A N/A N/A VRB3      30.13R FOG
HOPKINSVILLE   SUNNY     70  67  92 CALM      30.13R
BOWLING GREEN  FOG       68  67  96 CALM      30.14R VSB 1/4
GLASGOW        NOT AVBL
$$

KYZ024-025-028>034-038-045-046-053-241400-
NORTH CENTRAL KENTUCKY

CITY           SKY/WX    TMP DP  RH WIND       PRES   REMARKS
LOUISVILLE/SDF SUNNY     75  67  76 CALM      30.13R HAZE
LOUISVILLE/LOU SUNNY     71  67  87 CALM      30.14R FOG
FORT KNOX      SUNNY     68  67  98 W2        30.12R
$$

KYZ035>037-039>044-047>052-055>060-089>105-241400-
NORTHEAST KENTUCKY

CITY           SKY/WX    TMP DP  RH WIND       PRES   REMARKS
LEXINGTON      SUNNY     70  64  81 CALM      30.14R
COVINGTON      MOSUNNY   70  67  90 NE7       30.15R FOG
FRANKFORT      SUNNY     69  63  81 CALM      30.13R
$$

KYZ054-064>069-076>088-106>120-241400-
SOUTHEAST KENTUCKY

CITY           SKY/WX    TMP DP  RH WIND       PRES   REMARKS
JACKSON        SUNNY     68  65  90 CALM      30.16R
LONDON         SUNNY     66  62  87 CALM      30.16R
SOMERSET       CLOUDY    63  63 100 CALM      30.16S
MIDDLESBORO    FOG       62  62 100 CALM      30.18S VSB 3/4
MONTICELLO     SUNNY     67  64  90 W9        30.17R
$$




USA.gov is the U.S. government's official web portal to all federal, state and local government web resources and services.